TimeEDT,TemperatureF,Dew PointF,Humidity,Sea Level PressureIn,VisibilityMPH,Wind Direction,Wind SpeedMPH,Gust SpeedMPH,PrecipitationIn,Events,Conditions,WindDirDegrees,DateUTC
12:54 AM,28.0,19.9,72,29.73,10.0,Calm,Calm,-,N/A,,Mostly Cloudy,0,2013-03-25 04:54:00
1:54 AM,30.0,21.0,69,29.71,10.0,East,6.9,-,N/A,,Mostly Cloudy,90,2013-03-25 05:54:00
2:54 AM,30.9,21.0,67,29.70,10.0,East,9.2,-,N/A,,Mostly Cloudy,90,2013-03-25 06:54:00
3:54 AM,30.9,21.0,67,29.68,10.0,ENE,8.1,-,N/A,,Overcast,70,2013-03-25 07:54:00
4:54 AM,30.9,21.0,67,29.67,10.0,ENE,9.2,-,N/A,,Overcast,60,2013-03-25 08:54:00
5:54 AM,30.0,21.0,69,29.68,10.0,NE,4.6,-,N/A,,Overcast,50,2013-03-25 09:54:00
6:54 AM,30.0,21.0,69,29.69,10.0,NNE,3.5,-,N/A,,Overcast,30,2013-03-25 10:54:00
7:54 AM,30.0,21.0,69,29.69,10.0,East,4.6,-,N/A,,Overcast,80,2013-03-25 11:54:00
8:54 AM,30.9,21.9,69,29.68,10.0,East,5.8,-,N/A,,Overcast,80,2013-03-25 12:54:00
9:54 AM,34.0,21.9,61,29.67,10.0,East,11.5,-,N/A,,Overcast,80,2013-03-25 13:54:00
10:54 AM,35.1,21.9,59,29.65,10.0,East,12.7,-,N/A,,Overcast,90,2013-03-25 14:54:00
11:54 AM,37.0,21.9,54,29.64,10.0,ENE,9.2,-,N/A,,Overcast,70,2013-03-25 15:54:00
12:54 PM,39.9,23.0,51,29.61,10.0,East,5.8,-,N/A,,Overcast,80,2013-03-25 16:54:00
1:54 PM,42.1,21.9,45,29.60,10.0,Variable,3.5,-,N/A,,Overcast,0,2013-03-25 17:54:00
2:54 PM,43.0,21.9,43,29.57,10.0,ESE,3.5,-,N/A,,Overcast,110,2013-03-25 18:54:00
3:54 PM,41.0,23.0,49,29.57,10.0,North,11.5,-,N/A,,Overcast,350,2013-03-25 19:54:00
4:54 PM,41.0,24.1,51,29.57,10.0,NNW,9.2,-,N/A,,Overcast,330,2013-03-25 20:54:00
5:54 PM,41.0,25.0,53,29.58,10.0,NW,10.4,-,N/A,,Overcast,310,2013-03-25 21:54:00
6:54 PM,41.0,26.1,55,29.61,10.0,NW,10.4,-,N/A,,Overcast,320,2013-03-25 22:54:00
7:54 PM,39.0,25.0,57,29.63,10.0,NNW,11.5,-,N/A,,Overcast,340,2013-03-25 23:54:00
8:54 PM,39.0,25.0,57,29.65,10.0,North,9.2,-,N/A,,Overcast,360,2013-03-26 00:54:00
9:54 PM,37.9,25.0,60,29.65,10.0,North,5.8,-,N/A,,Overcast,350,2013-03-26 01:54:00
10:54 PM,37.9,25.0,60,29.66,10.0,WNW,4.6,-,N/A,,Overcast,300,2013-03-26 02:54:00
11:54 PM,37.0,26.1,65,29.67,10.0,WNW,4.6,-,N/A,,Overcast,290,2013-03-26 03:54:00